Location: Unspecified
(0.0000°N, 0.0000°E)
Time: 18:58:12
(UTC+00:00)

Vanguard 2 Rocket - Pass Details

Date: 23 January 2020
Orbit: 554 x 3327 km, 32.9° (Epoch: 20 February)

Event Time Altitude Azimuth Distance (km) Brightness Sun altitude
Rises 11:47:28 0° 316° (NW) 5,154 10.6 69.6°
Reaches altitude 10° 11:50:26 10° 320° (NW) 4,473 10.4 69.8°
Maximum altitude 12:03:52 60° 38° (NE) 3,122 10.4 70.4°
Drops below altitude 10° 12:23:28 10° 113° (ESE) 6,287 11.4 70.3°
Sets 12:28:30 0° 117° (ESE) 7,281 11.6 70.1°
